sat.trackr.live / text

‹ back to catalog

ONEWEB-0068

NORAD 45446 · 2020-020Y

PAYLOAD ACTIVE UNKNOWN

§ Identity

Operator
Country
UK
Launch date
2020-03-21
Launch site
TYMSC
Launch vehicle
Mass (kg)
RCS (m²)

Purposes: comms

External: N2YO · Heavens-Above · Gunter

§ Orbital elements

Epoch: 2026-09-09T20:13:35.277024Z

Period
109.81 min
Inclination
87.8970°
Eccentricity
0.0002004
Mean motion
13.11415387 rev/d
Perigee alt
1,216.2 km
Apogee alt
1,219.2 km
Semi-major
7,595.8 km
B*
1.4378e-3
RAAN
4.2348°
Arg perigee
101.2700°
Mean anomaly
258.8654°
Rev number
31,369

§ Raw data

ONEWEB-00681 45446U 20020Y   26252.84276941  .00000522  00000+0  14378-2 0  99982 45446  87.8970   4.2348 0002004 101.2700 258.8654 13.11415387313696

JSON: /api/v1/satellites/45446 · /tle

For live sub-satellite position, see the globe view (requires WebGL).

§ Visibility from observer

Set your observer location to see the next 7 days of passes ≥ 10°. The values pass through the URL so the page stays shareable.

No JS? Fill the form by hand. The geolocation button needs JavaScript.